[[{"header":{"parameterUnit":"m.s-1","parameterCategory":1,"la1":30.2991,"la2":30.254,"lo1":-89.0895,"lo2":-89.0444,"dy":0.0017,"dx":0.0017,"nx":28,"ny":28,"refTime":"2024-05-10T09:00:00:Z","depth":0,"parameterNumber":2,"parameterNumberName":"U-component_of_WINDS"},"data":[0,0,0,0,0,0,0,0,0,0,0,0,0,0,0,0,0,0,0,0,0,0,0,0,0,0,0,0,0,0,0,0,0,0,0,0,0,0,0,0,0,0,0,0,0,0,0,0,0,0,0,0,0,0,0,0,0,0,1.1184,1.1185,0,1.1255,1.1255,1.1256,1.126,1.1259,1.1259,1.1258,1.1332,1.1334,1.1337,0,0,0,0,0,0,0,0,0,0,0,0,0,1.1056,1.1058,1.1184,1.1185,1.1186,1.1255,1.1256,1.1256,1.126,1.1259,1.1258,1.1257,1.1331,1.1334,1.1337,0,0,0,0,0,0,0,0,0,0,0,0,0,1.1118,1.1059,1.1184,1.1196,1.1198,1.1254,1.1256,1.1257,1.126,1.1259,1.1258,1.1257,1.133,1.1334,1.1338,1.1387,0,0,1.135,1.1352,0,0,0,0,0,0,0,0,1.1114,1.1122,1.1193,1.1195,1.1197,1.1247,1.1237,1.1301,1.1261,1.1237,1.1258,1.1256,1.1305,1.1311,1.1327,1.1391,1.1394,1.1351,1.1353,1.1355,1.1356,0,0,0,0,0,0,0,1.111,1.1119,1.1212,1.1195,1.1197,1.1199,1.1206,1.1249,1.1277,1.1239,1.1239,1.1247,1.1306,1.1323,1.1328,1.1395,1.135,1.1354,1.1357,1.1358,1.1506,1.1508,0,0,0,0,0,0,1.1103,1.1116,1.121,1.1214,1.1152,1.1202,1.1211,1.1233,1.1276,1.1282,1.1248,1.1247,1.1316,1.1324,1.1331,1.1393,1.1355,1.1359,1.1361,1.1505,1.1506,1.1508,0,0,0,0,0,0,1.11,1.1111,1.1207,1.1165,1.1178,1.1206,1.1231,1.1235,1.1252,1.1284,1.1289,1.1261,1.1316,1.1325,1.1374,1.1396,1.136,1.1364,1.1503,1.1505,1.1507,1.1518,0,0,0,0,0,0,1.1097,1.111,1.1129,1.1166,1.118,1.1248,1.1232,1.1237,1.1259,1.1258,1.1297,1.1302,1.1315,1.1368,1.1378,1.1401,1.1367,1.1501,1.1504,1.1507,1.1516,1.152,1.1524,0,0,0,0,0,1.1092,1.1129,1.1129,1.1141,1.1203,1.1249,1.1257,1.1272,1.126,1.128,1.1301,1.1301,1.1392,1.1373,1.1384,1.1409,1.15,1.1503,1.1506,1.1514,1.1519,1.1524,0,0,0,0,0,0,1.1094,1.1134,1.1135,1.1185,1.1213,1.1249,1.1274,1.1277,1.1309,1.1307,1.1325,1.1334,1.1382,1.14,1.1378,1.146,1.1445,1.1451,1.1446,1.1452,1.1456,1.1451,1.1371,0,0,0,0,0,1.11,1.1133,1.1166,1.1207,1.1221,1.1245,1.1266,1.1275,1.1305,1.1317,1.1342,1.1372,1.1408,1.1431,1.1465,1.1519,1.1528,1.1541,1.1546,1.1549,1.1554,1.1585,1.1592,1.1519,1.1519,1.1519,0,0,1.1113,1.1139,1.1158,1.1208,1.1231,1.1266,1.1255,1.1292,1.1319,1.1323,1.137,1.139,1.1425,1.1476,1.15,1.1493,1.1576,1.1553,1.1555,1.1559,1.1589,1.1596,1.1602,1.1521,1.1521,1.152,0,0,1.1154,1.1177,1.1214,1.1238,1.1273,1.1289,1.1298,1.1334,1.1347,1.1395,1.14,1.1432,1.1493,1.1518,1.1539,1.1593,1.1594,1.1603,1.1625,1.1655,1.1661,1.1666,1.1686,1.1693,1.1608,1.1608,1.1608,0,1.1166,1.1218,1.1233,1.127,1.1292,1.1298,1.1337,1.1359,1.1405,1.142,1.1412,1.149,1.1514,1.1572,1.1585,1.1601,1.1613,1.1599,1.1659,1.1664,1.1669,1.1689,1.1696,1.1609,1.1609,1.1609,1.1609,0,1.1231,1.1267,1.1293,1.1337,1.1362,1.14,1.1422,1.1446,1.1453,1.147,1.152,1.155,1.1591,1.1605,1.1613,1.1665,1.166,1.1655,1.164,1.1677,1.1695,1.1703,1.161,1.161,1.161,1.161,0,0,1.1274,1.1327,1.1336,1.1357,1.1397,1.1426,1.1465,1.1505,1.1526,1.1558,1.1592,1.1644,1.164,1.1664,1.1675,1.1701,1.1743,1.1693,1.1694,1.1702,1.1805,1.1808,1.1816,1.1745,1.1746,1.1748,1.1802,0,1.1321,1.1389,1.1405,1.1464,1.1499,1.1506,1.154,1.1569,1.1587,1.162,1.164,1.1677,1.1669,1.1684,1.171,1.1732,1.1764,1.1729,1.1778,1.1779,1.1768,1.1826,1.1829,1.1879,1.1809,1.181,1.1811,0,1.1383,1.1417,1.148,1.1517,1.1532,1.1563,1.1602,1.1633,1.1667,1.1678,1.1706,1.1714,1.1757,1.1739,1.1799,1.1774,1.1796,1.181,1.1812,1.1817,1.1797,1.1833,1.1895,1.1902,1.1823,1.1822,1.1821,0,1.1409,1.147,1.1516,1.1533,1.1578,1.16,1.162,1.1653,1.1676,1.1711,1.1727,1.1766,1.1788,1.1819,1.1838,1.1824,1.1897,1.1881,1.1908,1.1908,1.1923,1.1921,1.1989,1.1936,1.1936,1.1936,1.1936,0,1.146,1.1498,1.1528,1.1556,1.16,1.1619,1.1662,1.1682,1.1712,1.1745,1.1754,1.1785,1.1809,1.1844,1.1859,1.1907,1.1917,1.1928,1.1931,1.1927,1.1926,1.1941,1.1938,1.1938,1.1937,1.1937,1.1937,0,1.1496,1.1517,1.1568,1.1607,1.1618,1.1649,1.1682,1.1711,1.173,1.1772,1.1783,1.1812,1.1854,1.1877,1.1929,1.194,1.1993,1.1995,1.1981,1.1983,1.2009,1.2006,1.2089,1.2101,1.204,1.204,1.2041,0,1.1526,1.1556,1.1598,1.1621,1.1641,1.1678,1.1703,1.1723,1.1748,1.1791,1.1814,1.1857,1.1891,1.1958,1.1985,1.2026,1.2029,1.2055,1.2035,1.203,1.203,1.2028,1.2031,1.2058,1.2059,1.2059,1.206,0,1.1578,1.1588,1.1623,1.1662,1.1691,1.1723,1.1755,1.1773,1.1799,1.1828,1.187,1.1897,1.1951,1.1994,1.2037,1.2059,1.2064,1.2066,1.2075,1.207,1.2061,1.2067,1.1991,1.2064,1.2063,1.2063,1.2063,1.2063,1.1612,1.164,1.1675,1.1714,1.174,1.177,1.1799,1.1822,1.1858,1.1903,1.1913,1.1958,1.1994,1.2053,1.2076,1.2112,1.2107,1.2119,1.2123,1.2125,1.2127,1.2056,1.212,1.212,1.212,1.212,1.212,0,1.1665,1.1688,1.1724,1.1769,1.18,1.1803,1.1838,1.1865,1.1904,1.1937,1.1971,1.2022,1.2063,1.2094,1.2137,1.2161,1.2164,1.2171,1.217,1.2175,1.2128,1.2117,1.2168,1.2168,1.2168,1.2168,1.2168,1.2168,1.1696,1.1743,1.1758,1.1818,1.1842,1.1886,1.1906,1.1935,1.1961,1.2016,1.2051,1.2071,1.2104,1.2149,1.2188,1.2196,1.2212,1.2219,1.2227,1.2183,1.2178,1.2173,1.2162,1.2222,1.2222,1.227,1.2271,1.2271]},{"header":{"parameterUnit":"m.s-1","parameterCategory":1,"la1":30.2991,"la2":30.254,"lo1":-89.0895,"lo2":-89.0444,"dy":0.0017,"dx":0.0017,"nx":28,"ny":28,"refTime":"2024-05-10T09:00:00:Z","depth":0,"parameterNumber":3,"parameterNumberName":"V-component_of_WINDS"},"data":[0,0,0,0,0,0,0,0,0,0,0,0,0,0,0,0,0,0,0,0,0,0,0,0,0,0,0,0,0,0,0,0,0,0,0,0,0,0,0,0,0,0,0,0,0,0,0,0,0,0,0,0,0,0,0,0,0,0,-1.6833,-1.6832,0,-1.6724,-1.6723,-1.6722,-1.6815,-1.6819,-1.6823,-1.6827,-1.6702,-1.6695,-1.6688,0,0,0,0,0,0,0,0,0,0,0,0,0,-1.711,-1.7105,-1.6833,-1.6831,-1.683,-1.6724,-1.6723,-1.6721,-1.6815,-1.6819,-1.6824,-1.6829,-1.6704,-1.6696,-1.6687,0,0,0,0,0,0,0,0,0,0,0,0,0,-1.6994,-1.7103,-1.6833,-1.6864,-1.6866,-1.6725,-1.6723,-1.6721,-1.6814,-1.6819,-1.6825,-1.6831,-1.6707,-1.6696,-1.6686,-1.6504,0,0,-1.6654,-1.665,0,0,0,0,0,0,0,0,-1.7,-1.6984,-1.6861,-1.6862,-1.6864,-1.679,-1.6775,-1.6648,-1.6812,-1.6833,-1.6827,-1.6834,-1.6725,-1.6714,-1.668,-1.6498,-1.6493,-1.6653,-1.6647,-1.6642,-1.6639,0,0,0,0,0,0,0,-1.7008,-1.6989,-1.6789,-1.6859,-1.6861,-1.688,-1.687,-1.6751,-1.6747,-1.6832,-1.6838,-1.6825,-1.6727,-1.669,-1.6678,-1.6491,-1.6653,-1.6644,-1.6638,-1.6634,-1.6154,-1.6148,0,0,0,0,0,0,-1.7015,-1.6995,-1.6793,-1.6786,-1.6948,-1.687,-1.6859,-1.6807,-1.6749,-1.6746,-1.682,-1.683,-1.6705,-1.669,-1.6673,-1.6455,-1.6642,-1.6633,-1.6627,-1.6161,-1.6153,-1.6146,0,0,0,0,0,0,-1.702,-1.6996,-1.6797,-1.6892,-1.6869,-1.6859,-1.68,-1.6802,-1.6765,-1.674,-1.6739,-1.6783,-1.6709,-1.6688,-1.6546,-1.6452,-1.6628,-1.6618,-1.6168,-1.6158,-1.6149,-1.6018,0,0,0,0,0,0,-1.7028,-1.6997,-1.693,-1.689,-1.6863,-1.6675,-1.6794,-1.6795,-1.6748,-1.676,-1.6705,-1.6702,-1.6712,-1.6562,-1.6536,-1.6441,-1.661,-1.6176,-1.6164,-1.6152,-1.6031,-1.6005,-1.5984,0,0,0,0,0,-1.7038,-1.6895,-1.6927,-1.6902,-1.678,-1.6669,-1.6653,-1.6672,-1.674,-1.6671,-1.6656,-1.6703,-1.6468,-1.6546,-1.6518,-1.6419,-1.6182,-1.6167,-1.6153,-1.6041,-1.601,-1.5984,0,0,0,0,0,0,-1.6918,-1.689,-1.6925,-1.6766,-1.672,-1.6685,-1.6598,-1.6638,-1.6568,-1.6581,-1.6603,-1.659,-1.644,-1.6416,-1.6504,-1.624,-1.6336,-1.6315,-1.626,-1.623,-1.6207,-1.6214,-1.6601,0,0,0,0,0,-1.6875,-1.6791,-1.6769,-1.663,-1.6607,-1.6606,-1.6559,-1.6578,-1.6529,-1.6508,-1.6483,-1.643,-1.6345,-1.6287,-1.6207,-1.603,-1.6018,-1.5948,-1.5924,-1.5905,-1.5885,-1.5788,-1.5756,-1.6098,-1.6098,-1.6099,0,0,-1.678,-1.6755,-1.67,-1.6606,-1.6573,-1.6482,-1.6589,-1.6488,-1.642,-1.6492,-1.6357,-1.6336,-1.6279,-1.6119,-1.6047,-1.6094,-1.5789,-1.5886,-1.5871,-1.5861,-1.577,-1.5738,-1.5709,-1.6088,-1.609,-1.6092,0,0,-1.6563,-1.6537,-1.6418,-1.6384,-1.6335,-1.6337,-1.6308,-1.6269,-1.6259,-1.6126,-1.6178,-1.6096,-1.5948,-1.5906,-1.5864,-1.5635,-1.5675,-1.5608,-1.5482,-1.5388,-1.5361,-1.5337,-1.5253,-1.5222,-1.559,-1.5589,-1.5589,0,-1.645,-1.632,-1.6351,-1.6247,-1.6203,-1.6272,-1.6149,-1.6114,-1.6038,-1.6004,-1.606,-1.5878,-1.5844,-1.5674,-1.5619,-1.5585,-1.555,-1.5612,-1.5364,-1.534,-1.5318,-1.5237,-1.5206,-1.5581,-1.5582,-1.5583,-1.5584,0,-1.6184,-1.6092,-1.6002,-1.5933,-1.588,-1.5767,-1.5778,-1.572,-1.5745,-1.5739,-1.5602,-1.5565,-1.5479,-1.5441,-1.5462,-1.5274,-1.5305,-1.5361,-1.5457,-1.5277,-1.5201,-1.5171,-1.557,-1.5573,-1.5575,-1.5577,0,0,-1.5881,-1.5836,-1.5801,-1.5771,-1.5724,-1.5652,-1.5542,-1.5463,-1.5411,-1.5358,-1.5264,-1.514,-1.5194,-1.5147,-1.5164,-1.5082,-1.4901,-1.5149,-1.5148,-1.5101,-1.4688,-1.4643,-1.4607,-1.493,-1.4924,-1.492,-1.4692,0,-1.566,-1.5474,-1.55,-1.5319,-1.5233,-1.5299,-1.5203,-1.5162,-1.5155,-1.5079,-1.507,-1.4981,-1.506,-1.5032,-1.4955,-1.4939,-1.4817,-1.4957,-1.4838,-1.4833,-1.4846,-1.4568,-1.4519,-1.4306,-1.4663,-1.4658,-1.4655,0,-1.5374,-1.5317,-1.5129,-1.5096,-1.5061,-1.4975,-1.4905,-1.4834,-1.4787,-1.4788,-1.4739,-1.4772,-1.4659,-1.4762,-1.4604,-1.4699,-1.4653,-1.4638,-1.463,-1.4616,-1.4729,-1.4542,-1.4239,-1.4205,-1.4609,-1.4613,-1.4616,0,-1.5169,-1.5044,-1.4916,-1.4888,-1.4848,-1.4786,-1.4765,-1.4726,-1.4677,-1.4615,-1.4583,-1.4507,-1.4464,-1.4404,-1.4414,-1.4489,-1.4253,-1.4357,-1.4246,-1.4246,-1.4189,-1.4191,-1.387,-1.4166,-1.4167,-1.4168,-1.4168,0,-1.4916,-1.4797,-1.4823,-1.4743,-1.4612,-1.4644,-1.4511,-1.4498,-1.4464,-1.438,-1.4432,-1.4351,-1.4373,-1.4293,-1.43,-1.4168,-1.4148,-1.4143,-1.4145,-1.4136,-1.4136,-1.4102,-1.4115,-1.4159,-1.4161,-1.4163,-1.4164,0,-1.4661,-1.4675,-1.4539,-1.4514,-1.4505,-1.4409,-1.4386,-1.4309,-1.431,-1.4204,-1.418,-1.4178,-1.4087,-1.4094,-1.3989,-1.3994,-1.3829,-1.3851,-1.3845,-1.3849,-1.3737,-1.3746,-1.3378,-1.333,-1.3661,-1.3658,-1.3656,0,-1.4496,-1.4408,-1.4376,-1.4326,-1.4303,-1.4221,-1.4174,-1.4202,-1.4149,-1.4092,-1.4021,-1.3937,-1.3869,-1.3719,-1.3706,-1.3626,-1.3644,-1.3521,-1.3631,-1.3625,-1.3638,-1.3641,-1.3631,-1.3497,-1.3493,-1.349,-1.3488,0,-1.4201,-1.4214,-1.4145,-1.4079,-1.4022,-1.397,-1.3923,-1.3878,-1.3902,-1.3839,-1.375,-1.3698,-1.3595,-1.3507,-1.3433,-1.3408,-1.3449,-1.3454,-1.3424,-1.341,-1.3409,-1.3405,-1.3782,-1.3461,-1.3463,-1.3465,-1.3467,-1.3468,-1.3984,-1.3908,-1.3875,-1.3797,-1.3766,-1.3722,-1.3649,-1.3643,-1.357,-1.3491,-1.3512,-1.3409,-1.3367,-1.3272,-1.324,-1.3158,-1.3201,-1.3158,-1.3146,-1.3134,-1.312,-1.3427,-1.3145,-1.3145,-1.3146,-1.3147,-1.3147,0,-1.3688,-1.3672,-1.3601,-1.3536,-1.3474,-1.3528,-1.3479,-1.3422,-1.3333,-1.3292,-1.3227,-1.3123,-1.3041,-1.3023,-1.2943,-1.2881,-1.2898,-1.2858,-1.2861,-1.2854,-1.3087,-1.312,-1.2846,-1.2846,-1.2846,-1.2846,-1.2846,-1.2846,-1.3527,-1.3402,-1.3411,-1.327,-1.3253,-1.3157,-1.3125,-1.3083,-1.3051,-1.2935,-1.2868,-1.286,-1.2828,-1.2747,-1.2673,-1.267,-1.2636,-1.2588,-1.2591,-1.2808,-1.2837,-1.2866,-1.2897,-1.2581,-1.2581,-1.2365,-1.2363,-1.2362]}]]